Dewpoint
70 70 70 71 71 72 70 69 70 69 70 69 70 71 70 70 71 71 71 71 70 68 67 65 65 64 62 61 61 63 63 65 64 64 64 64 66 74 74 75 74 74 74 74 74 74 74 74 73 74 74 74 74 73 73 72 72 72 72 72 72 72 72 72 72 72 72 72 73 73 73 73 73 72 72 72 72 72 72 72 72 71 71 71 71
70 71 71 71 72 72 72 70 69 70 69 70 68 69 69 69 70 71 70 71 69 68 66 64 61 60 63 64 62 60 63 62 64 62 65 65 66 76 74 74 74 74 74 74 74 73 74 74 74 73 74 74 74 74 74 73 72 72 72 72 72 72 72 72 73 73 72 73 73 73 72 73 73 73 73 72 72 72 72 72 72 72 72 72 72
71 71 71 71 72 73 72 71 70 70 70 70 71 70 70 70 72 71 71 71 70 67 66 64 64 62 62 62 63 63 62 63 60 60 61 64 64 68 74 74 73 75 74 74 74 74 73 74 75 74 74 74 74 75 74 74 73 73 73 72 72 72 72 72 72 73 73 73 73 73 73 73 72 72 72 72 72 73 73 73 72 72 72 72 72
74 75 73 72 72 71 71 72 72 69 71 71 71 72 72 71 73 74 72 71 69 66 66 63 62 61 63 60 62 62 61 60 56 55 58 61 60 65 68 73 74 74 74 74 74 74 74 74 74 74 74 74 74 74 75 74 75 74 73 72 72 72 72 72 72 73 73 73 73 73 73 73 73 72 72 72 72 72 73 73 73 72 72 72 72
76 75 75 73 72 73 71 72 72 71 72 74 74 74 73 72 72 73 72 70 66 66 65 62 61 63 63 61 62 63 64 63 62 59 56 58 60 64 65 66 73 74 73 74 75 75 75 75 74 74 74 74 74 74 74 73 74 74 74 73 73 72 72 72 72 72 72 72 73 73 73 73 73 73 73 73 72 72 72 72 71 73 72 72 72
76 76 76 73 72 72 72 72 72 73 74 75 75 74 73 70 70 70 69 67 65 66 63 65 63 63 63 63 64 65 63 62 58 59 57 57 61 63 62 63 64 72 74 74 74 75 75 75 74 74 74 74 74 73 74 74 73 73 74 74 74 73 73 72 72 72 72 72 73 73 73 73 73 73 73 73 73 73 73 72 72 72 73 73 73
77 78 76 75 72 71 73 73 76 74 72 74 73 73 72 71 71 70 69 65 64 65 65 64 63 65 65 65 64 64 64 62 62 60 61 64 63 61 65 64 65 65 69 73 74 74 75 75 75 74 74 74 74 73 73 73 73 74 73 72 74 73 73 72 72 72 72 72 72 72 72 72 73 73 74 73 73 74 74 74 73 73 73 73 73
78 79 76 75 73 72 76 74 74 77 73 73 75 73 72 72 71 69 67 65 66 65 65 63 65 64 65 65 65 64 64 63 61 60 58 62 64 64 65 66 67 66 68 64 70 73 74 75 75 75 74 74 74 73 72 72 73 72 73 73 73 73 73 73 72 72 72 72 72 72 72 73 72 73 73 74 74 74 74 74 74 74 73 73 73
80 79 78 77 73 73 72 74 75 76 75 75 75 73 71 69 71 70 67 67 65 63 63 64 64 63 64 63 62 65 64 64 61 61 62 64 63 60 63 66 68 67 73 66 66 72 74 74 75 74 74 74 74 74 73 72 73 73 73 73 72 72 73 73 74 73 73 73 74 73 73 73 73 73 73 73 73 74 74 74 74 74 74 73 73
80 79 78 77 76 75 75 75 74 75 74 74 72 73 72 70 69 69 67 67 65 64 62 63 64 64 63 60 65 63 64 63 65 64 63 63 64 59 63 62 63 67 68 70 68 68 71 73 74 74 74 73 74 74 74 73 72 72 73 73 72 72 71 72 72 72 72 72 73 73 73 73 73 74 73 73 73 74 74 74 74 74 74 74 74
79 79 78 76 75 75 75 75 74 74 76 73 73 74 71 69 67 68 68 68 66 66 64 64 64 64 62 61 65 66 66 64 65 63 62 58 58 57 56 63 62 64 66 66 68 70 72 72 73 73 73 74 73 74 73 73 74 73 73 72 71 71 71 72 72 72 72 72 72 73 73 73 73 74 74 74 74 74 74 74 74 73 73 73 74
78 78 77 77 75 75 74 75 75 74 74 72 72 70 70 68 68 68 68 68 68 67 64 63 62 63 63 64 65 65 65 65 65 64 63 59 59 59 57 59 62 63 61 64 64 63 67 69 72 73 73 74 74 74 73 74 73 73 73 72 71 71 71 72 72 72 73 72 72 72 72 72 73 73 73 74 74 74 74 74 74 74 74 74 73
78 78 77 77 76 75 75 76 76 74 73 72 70 68 70 68 68 68 66 67 65 64 63 63 65 64 65 64 64 64 65 64 63 61 59 56 56 57 58 59 60 60 64 63 63 64 66 67 66 68 70 73 73 73 73 72 72 72 72 72 72 72 72 73 72 72 73 73 72 72 72 72 72 72 72 73 73 74 74 74 74 74 74 74 74
78 78 78 77 76 75 76 76 75 74 72 70 69 69 68 67 67 66 67 62 64 60 62 64 64 64 60 61 61 63 64 62 61 57 57 55 55 59 60 55 55 58 59 61 63 63 64 66 68 68 69 69 69 73 73 73 73 72 73 72 72 73 73 72 72 73 73 73 73 73 73 73 73 72 73 73 73 74 74 74 74 74 74 74 74
78 77 77 77 76 76 75 75 74 71 70 69 69 68 68 66 66 64 63 64 63 64 65 65 64 61 62 59 60 59 64 64 58 57 53 52 53 52 54 54 56 60 61 60 60 63 61 64 67 68 69 68 68 68 70 71 71 72 71 70 71 71 72 72 71 71 72 72 73 73 73 73 73 73 72 72 73 73 73 74 74 74 74 74 74
76 77 76 75 73 72 71 71 71 70 70 69 68 67 67 66 65 65 66 63 59 63 65 66 64 62 61 62 61 56 54 62 61 58 53 51 50 50 53 55 56 59 59 58 56 60 63 63 66 66 67 67 68 66 67 68 71 71 70 69 69 69 70 70 71 71 71 71 71 71 72 72 73 73 73 73 72 72 73 73 74 74 74 74 74
74 73 71 71 71 72 71 70 70 70 70 68 67 64 65 65 67 67 67 62 60 58 62 62 64 65 63 62 59 55 59 59 52 59 56 54 50 49 55 54 55 59 58 59 60 59 58 61 63 64 65 65 66 66 67 67 67 69 69 67 66 66 67 68 69 69 69 70 70 71 71 71 72 72 73 72 72 73 73 73 73 73 74 74 74
72 71 71 70 72 72 71 71 70 70 69 66 65 65 66 66 65 66 64 66 65 61 59 61 62 64 66 64 63 59 59 61 57 60 62 55 56 53 54 50 56 58 59 59 57 57 57 58 60 62 61 63 62 62 63 65 68 66 66 65 64 64 65 66 67 68 67 67 68 68 69 70 71 71 72 72 72 72 73 72 72 73 73 73 74
71 72 71 70 71 72 72 71 70 69 69 69 67 65 62 65 65 64 65 66 66 64 61 59 63 62 62 62 63 63 61 59 60 59 55 60 57 51 48 51 50 50 53 53 54 55 57 58 58 58 61 60 60 60 62 63 62 63 65 64 63 62 63 65 66 65 65 65 66 66 67 68 68 69 70 71 72 72 72 72 72 72 72 73 73
70 72 71 70 70 71 72 71 68 67 67 67 66 64 64 65 67 66 67 68 67 65 61 60 60 61 62 63 62 63 63 60 59 59 58 56 58 52 46 47 51 49 50 47 48 56 58 59 58 58 58 60 59 57 61 60 63 63 61 64 62 62 62 63 64 64 63 64 65 65 65 66 66 67 68 69 70 71 71 70 70 72 72 72 73
72 71 72 71 71 71 72 71 69 68 67 65 63 63 65 66 67 68 67 67 66 65 65 64 61 58 63 64 62 62 61 57 61 60 55 56 53 51 53 51 50 50 54 51 51 55 56 58 58 56 58 59 60 58 57 60 61 63 58 63 62 62 62 62 62 63 61 63 63 64 64 65 64 65 66 67 67 68 69 70 71 72 72 72 72
72 72 72 72 72 71 71 70 69 65 65 63 63 64 65 66 66 66 66 65 65 65 64 64 63 62 62 64 63 62 60 57 56 56 57 58 54 52 49 48 53 55 55 52 55 54 56 58 59 59 58 58 57 58 59 58 60 59 61 63 62 63 61 62 62 62 62 62 62 63 63 63 64 64 64 64 65 65 66 67 68 69 70 71 72
69 70 70 71 72 71 69 69 69 67 65 64 65 62 61 64 63 65 65 65 65 65 64 64 64 65 63 63 62 58 59 57 56 57 57 56 55 52 49 49 50 53 55 54 59 58 59 59 58 58 60 59 59 58 58 57 57 58 61 63 63 64 64 63 62 62 62 62 62 62 62 63 63 63 63 63 63 64 64 65 66 67 68 69 70
72 69 69 67 71 70 70 68 68 67 65 65 65 64 62 62 64 66 66 66 66 65 65 64 64 65 63 59 57 57 57 57 57 58 58 57 57 56 55 55 56 54 54 59 60 60 59 58 57 59 58 56 59 59 57 57 58 65 64 65 65 64 64 64 64 63 63 63 63 63 63 62 62 63 63 62 63 63 64 64 65 66 67 67 68
71 69 68 69 70 71 70 67 68 67 67 65 65 65 65 63 64 64 65 65 65 66 64 63 63 61 59 57 56 57 56 57 56 55 55 59 59 58 54 54 57 55 57 56 57 58 60 60 61 59 57 59 59 60 60 59 59 63 61 60 66 67 67 65 65 65 64 64 63 63 63 63 63 63 62 62 61 62 63 63 64 64 65 65 66
70 70 67 68 68 69 70 69 69 68 66 66 66 66 66 65 64 64 63 65 65 65 65 64 63 63 61 60 56 55 55 56 57 58 56 57 57 58 60 59 56 56 58 59 62 59 60 60 59 62 61 62 62 60 59 59 57 66 64 58 63 67 67 67 66 66 65 65 64 64 63 63 63 63 62 62 62 62 62 63 62 63 64 64 64
70 71 71 69 68 68 69 68 67 66 66 66 65 67 67 67 66 65 63 62 64 63 63 62 61 61 62 62 61 60 58 60 58 58 59 58 58 58 60 59 56 55 56 59 61 60 57 60 58 58 62 64 63 63 62 60 62 67 63 63 62 65 67 67 67 67 66 66 66 65 64 64 64 63 63 62 62 62 62 62 62 62 62 63 63
72 71 70 69 68 67 67 66 67 66 67 67 67 66 67 65 66 65 64 62 63 63 64 63 61 62 63 63 64 59 62 60 60 59 59 60 61 61 61 60 58 55 56 56 56 57 57 58 56 59 61 61 62 63 64 61 60 64 63 63 63 65 67 66 66 66 66 65 65 66 65 65 64 64 64 63 63 62 62 62 62 62 62 62 62
71 71 70 70 70 67 67 66 67 67 67 67 66 67 67 66 64 65 64 61 65 65 63 62 64 58 59 61 62 62 62 64 63 62 63 63 63 62 61 60 60 59 57 56 57 55 56 52 53 64 61 62 64 63 63 63 63 62 61 62 62 63 64 66 66 66 66 65 65 64 65 65 65 65 65 64 63 62 62 62 62 62 62 62 62
70 70 71 69 69 69 68 68 67 67 67 66 67 67 66 65 65 65 64 64 64 65 65 64 63 63 61 60 59 59 61 61 60 62 63 63 62 63 63 65 63 61 59 57 57 57 57 57 51 56 68 61 59 61 61 63 65 63 62 62 62 63 64 64 65 65 65 65 64 64 64 64 64 65 65 64 64 63 63 62 62 62 63 62 63
72 72 71 69 69 68 69 68 68 67 66 66 67 67 66 65 65 64 65 65 65 63 65 64 63 63 64 61 63 62 62 61 62 61 62 63 63 64 64 65 64 63 62 61 58 59 58 57 57 56 57 61 59 59 59 61 63 61 61 62 62 64 66 65 65 65 64 64 64 63 63 63 63 63 64 65 64 64 63 63 63 63 62 63 63
72 72 71 70 69 68 67 66 65 65 66 66 65 66 65 65 64 62 63 64 63 63 61 61 61 62 64 63 63 63 62 62 62 62 62 63 63 63 63 62 63 63 63 61 60 60 60 57 57 59 58 60 61 60 61 61 62 66 62 61 63 66 64 64 64 64 64 64 63 63 63 63 63 63 63 64 64 64 64 63 63 63 63 63 63
72 72 72 70 70 68 67 67 65 67 68 67 67 67 66 65 65 66 65 66 64 63 64 63 60 62 64 63 62 62 63 62 62 61 61 62 62 62 63 62 61 62 63 63 60 60 60 60 59 57 57 59 59 60 61 60 61 62 64 62 62 60 61 62 63 63 64 64 63 63 63 63 63 63 63 63 64 64 64 63 63 62 62 62 62
73 71 72 69 69 69 67 67 67 67 68 67 64 65 66 66 65 64 64 65 65 66 66 64 64 62 62 63 62 62 63 62 61 61 61 60 60 56 59 59 59 60 62 61 61 60 59 60 59 60 58 57 57 61 60 59 60 61 61 63 63 62 62 61 60 60 62 63 64 63 63 63 62 62 62 62 62 63 63 63 62 61 62 62 61
73 72 71 69 70 70 68 68 68 67 69 67 65 65 65 65 64 64 63 64 64 63 63 64 64 64 63 63 61 61 62 61 62 61 60 60 60 60 60 60 60 60 61 61 60 60 59 59 60 59 60 59 59 60 60 60 62 62 62 62 61 62 62 62 61 60 62 62 62 63 63 63 62 62 61 61 61 61 61 61 61 60 60 60 60
71 72 72 71 70 70 68 68 68 68 67 66 66 65 65 65 65 65 65 64 63 63 63 65 64 65 64 64 61 60 60 61 61 61 61 61 61 62 61 62 63 62 63 63 63 62 60 60 62 61 61 61 61 61 60 61 60 61 61 62 61 61 61 61 62 62 62 62 62 62 62 62 61 61 60 60 60 59 59 59 59 59 59 59 58
71 72 72 71 71 70 68 68 68 68 67 67 66 65 65 65 65 64 65 65 65 64 65 66 64 65 65 63 61 61 61 61 61 60 61 61 60 61 61 63 62 62 62 63 64 64 64 62 61 62 63 62 62 61 61 60 60 60 60 61 61 62 62 61 60 59 61 62 62 62 61 61 61 61 61 60 60 59 59 59 58 58 58 57 57
71 71 71 70 70 70 69 68 68 69 68 67 67 67 64 64 65 65 65 66 64 65 64 63 64 65 65 64 62 61 61 60 60 60 62 60 60 60 62 64 64 64 65 64 65 66 65 65 64 63 64 61 62 61 61 59 58 58 59 60 61 62 62 60 58 58 59 58 58 60 62 62 61 61 61 60 60 59 59 58 58 58 57 56 55
70 70 69 70 70 69 69 69 69 69 66 66 68 68 67 65 65 66 65 66 65 65 65 64 63 64 64 64 62 61 62 61 61 60 61 60 60 61 64 64 64 65 64 65 64 64 64 64 62 61 60 61 61 59 60 59 59 58 58 59 60 61 61 59 59 58 58 59 60 61 60 59 60 59 58 59 60 60 59 58 58 57 57 56 55
69 69 69 69 69 68 69 69 69 68 67 67 68 68 67 64 65 66 66 65 64 65 65 65 64 64 64 62 59 59 61 62 62 62 63 62 62 62 63 65 64 63 64 63 63 61 60 60 58 58 59 59 59 58 57 58 58 59 60 59 59 57 58 60 61 60 60 60 59 57 59 59 60 61 60 59 59 59 58 59 59 60 58 57 56
69 68 69 68 69 69 69 69 69 68 67 66 67 67 65 64 66 65 65 66 65 65 65 65 66 65 64 62 59 58 61 65 65 64 63 64 60 62 62 62 62 61 62 62 61 60 60 59 59 60 60 59 58 58 56 56 56 56 58 57 57 57 58 58 60 60 59 58 58 56 57 58 57 58 58 60 61 61 60 60 59 60 59 57 57
71 70 70 70 68 68 68 69 68 66 66 67 65 61 63 67 67 65 66 68 67 67 67 66 65 65 63 61 60 63 65 64 62 67 68 67 66 63 62 62 62 62 61 61 61 60 59 58 57 57 56 55 55 57 56 55 56 57 56 57 57 59 60 60 59 59 59 58 56 59 59 59 57 58 59 58 58 61 58 57 55 54 56 58 58
71 71 70 69 67 68 67 67 67 65 65 67 60 62 63 63 65 67 67 68 68 69 68 67 66 65 65 64 63 60 63 66 65 64 67 66 65 65 64 63 65 64 61 60 60 60 59 57 57 57 56 56 56 56 56 55 55 56 57 59 60 60 59 56 54 58 60 60 60 59 59 60 60 59 59 58 58 58 56 55 56 57 56 56 56
71 70 69 69 69 68 67 67 67 66 67 63 60 62 63 63 66 68 68 67 67 67 67 66 66 65 64 63 61 61 62 67 67 68 66 64 63 64 64 63 63 62 63 62 60 60 59 58 57 58 57 57 57 57 55 55 58 60 60 59 59 59 57 56 56 56 59 60 59 58 58 60 60 58 57 57 56 56 54 55 55 55 55 55 56
71 71 70 69 69 68 67 67 66 66 65 60 60 60 61 61 63 66 67 67 67 68 66 66 64 65 65 64 64 66 65 67 67 66 66 65 65 62 63 64 64 62 61 60 61 63 60 59 57 57 58 58 58 58 59 61 62 60 59 58 58 57 57 57 57 56 58 60 58 57 55 55 56 54 53 56 56 55 52 53 55 56 56 56 56
71 70 69 68 68 68 68 68 67 66 65 59 59 59 60 60 61 63 66 66 65 65 64 65 65 66 66 66 67 65 67 66 66 65 65 66 66 66 65 65 64 65 62 60 59 60 61 61 60 59 60 61 61 62 61 61 59 58 57 56 57 56 56 56 58 57 58 58 57 55 54 55 55 54 55 56 55 54 55 54 54 54 55 55 55
70 70 69 69 69 69 68 67 66 64 65 58 58 58 59 59 60 63 66 65 66 66 66 65 66 65 66 66 65 65 65 65 66 66 67 67 67 65 64 63 63 61 59 57 60 61 62 61 62 62 59 58 59 58 58 59 57 58 57 57 57 57 57 57 58 58 57 58 58 56 55 56 57 55 53 51 48 50 51 52 53 53 54 54 55
71 70 70 70 69 68 68 67 64 64 63 57 58 58 57 57 60 64 67 66 65 65 65 65 65 69 68 67 66 65 65 65 65 63 65 66 64 62 60 60 60 59 57 60 58 57 58 55 56 56 55 55 55 58 58 55 56 57 56 56 56 57 56 54 53 53 52 52 54 53 50 47 50 46 48 48 49 50 51 51 51 53 54 55 55
71 70 69 69 69 67 69 69 67 64 62 59 57 56 56 57 60 65 65 65 65 65 66 66 68 67 67 66 67 66 65 66 65 60 60 62 64 62 60 59 59 57 57 58 59 56 57 56 56 56 55 54 54 53 53 53 57 57 57 56 55 52 51 51 51 50 49 49 48 49 46 47 50 48 47 48 50 49 49 50 51 52 55 55 55
70 69 70 69 68 68 68 66 64 62 62 59 56 55 55 56 61 65 66 66 66 67 67 67 68 68 66 66 65 67 67 66 61 57 58 61 62 61 59 58 57 56 55 54 53 63 57 56 55 56 55 55 55 55 54 54 53 54 58 55 54 51 52 52 51 52 50 50 48 47 50 47 48 49 49 49 50 49 47 49 52 55 55 55 55
71 71 69 69 70 70 69 67 63 64 63 59 55 55 55 56 62 67 67 66 66 66 67 67 67 67 67 66 65 66 66 64 56 56 57 59 61 59 59 58 57 55 54 54 55 56 57 56 59 60 61 58 62 62 61 58 56 56 58 58 56 55 53 52 50 48 46 45 47 52 49 48 48 47 48 47 45 46 50 53 55 56 56 57 57